Voltar ao catálogo

COSMOS 839 DEB

AtivoUNKNOWN
NORAD 10621·DEBRIS·🇷🇺 Russia

Lançado Jul 8, 1976 de Plesetsk Cosmodrome

Loading…

Próximas Passagens (próximas 24 horas)

TLE

AtualizadoSource: Space-Track

Época: Sep 14, 2026, 16:40 UTC

1 10621U 76067AV  26257.69450523 -.00000007  00000-0  18613-3 0  9992
2 10621  66.0249 138.8662 0668596 181.3299 209.2943 12.31133757254942

Acompanhe COSMOS 839 DEB em tempo real com AllMySat

Download on the App Store